"startDT [UTC]","vpos","CH4 [ppm]","stdev(CH4) [ppm]","CO2 [ppm]","stdev(CO2) [ppm]","H2O [ppm]","stdev(H2O)","p_LGR [torr]","T_LGR [C]","mt1_LGR [us]","mt2_LGR [us]","T_ECpre [C]","T_EC1 [C]","T_EC2 [C]","p_inlet [hPa]","p_in [hPa]","p_out [hPa]","T_inlet [C]","RH_inlet [%]","dwpt_inlet [C]","T_vent [C]","RH_vent [%]","dwpt_vent [C]","flow_vent [l min-1]","flow_inlet [l min-1]","dwpt_sample [C]","T_room [C]"
2012-03-03 00:00:00,0.0,1.9208,0.0007,402.99,0.28,-1.0,0.0,138.23,24.08,24.58,36.23,0.04,-272.73,-272.73,-47,550,-937,18.8,0.8,-40.3,18.9,0.9,-39.8,5.73,2.41,-37.1,23.3
2012-03-03 00:01:00,0.0,1.9208,0.0010,403.07,0.28,-1.0,0.0,138.23,24.08,24.57,36.23,0.04,-272.73,-272.73,-47,550,-937,18.8,0.8,-40.4,18.9,0.9,-39.8,5.73,2.42,-37.1,23.3
2012-03-03 00:02:00,0.0,1.9202,0.0010,402.94,0.28,-1.0,0.0,138.23,24.07,24.58,36.23,0.04,-272.73,-272.73,-47,550,-937,18.8,0.8,-40.4,18.9,0.9,-39.8,5.73,2.44,-37.1,23.2
2012-03-03 00:03:00,0.0,1.9201,0.0009,402.98,0.25,-1.0,0.0,138.23,24.07,24.58,36.23,0.04,-272.73,-272.73,-47,550,-937,18.8,0.8,-40.7,18.9,0.8,-40.1,5.73,2.47,-37.1,23.3
2012-03-03 00:04:00,0.0,1.9202,0.0010,402.80,0.22,-1.0,0.0,138.23,24.07,24.57,36.23,0.04,-272.73,-272.73,-47,550,-937,18.8,0.8,-40.8,18.9,0.8,-40.1,5.73,2.49,-37.1,23.3
2012-03-03 00:05:00,0.0,1.9197,0.0010,402.85,0.25,-1.0,0.0,138.23,24.07,24.57,36.23,0.04,-272.73,-272.73,-47,550,-937,18.8,0.8,-40.7,18.9,0.8,-40.1,5.73,2.47,-37.1,23.3
2012-03-03 00:06:00,0.0,1.9203,0.0009,402.93,0.21,-1.0,0.0,138.23,24.06,24.57,36.23,0.04,-272.73,-272.73,-47,550,-937,18.8,0.8,-40.7,18.9,0.8,-40.4,5.73,2.43,-37.0,23.3
2012-03-03 00:07:00,0.0,1.9193,0.0009,402.85,0.28,-1.0,0.0,138.23,24.06,24.57,36.23,0.04,-272.73,-272.73,-47,550,-937,18.8,0.8,-40.8,18.9,0.8,-40.4,5.73,2.41,-37.1,23.3
2012-03-03 00:08:00,0.0,1.9197,0.0010,402.95,0.27,-1.0,0.0,138.22,24.06,24.57,36.23,0.04,-272.73,-272.73,-47,550,-937,18.8,0.8,-40.8,18.9,0.8,-40.4,5.73,2.42,-37.1,23.3
2012-03-03 00:09:00,0.0,1.9200,0.0009,402.91,0.26,-1.0,0.0,138.23,24.06,24.57,36.23,0.04,-272.73,-272.73,-47,550,-937,18.8,0.8,-40.8,18.9,0.8,-40.4,5.73,2.44,-37.1,23.3
2012-03-03 00:10:00,0.0,1.9205,0.0011,402.91,0.32,-1.0,0.0,138.22,24.06,24.57,36.23,0.04,-272.73,-272.73,-47,550,-937,18.8,0.8,-40.7,18.9,0.8,-40.2,5.73,2.47,-37.0,23.3
2012-03-03 00:11:00,0.0,1.9219,0.0010,402.99,0.27,-1.0,0.0,138.22,24.06,24.58,36.23,0.04,-272.73,-272.73,-47,550,-937,18.8,0.8,-40.7,18.9,0.8,-40.2,5.73,2.49,-37.0,23.4
2012-03-03 00:12:00,0.0,1.9209,0.0011,402.97,0.26,-1.0,0.0,138.23,24.06,24.57,36.23,0.04,-272.73,-272.73,-47,550,-937,18.8,0.8,-41.0,18.9,0.8,-40.4,5.73,2.47,-37.0,23.4
2012-03-03 00:13:00,0.0,1.9210,0.0007,402.99,0.28,-1.0,0.0,138.22,24.06,24.57,36.23,0.04,-272.73,-272.73,-47,550,-936,18.8,0.8,-41.1,18.9,0.8,-40.4,5.73,2.43,-37.0,23.4
2012-03-03 00:14:00,0.0,1.9218,0.0009,403.02,0.27,-1.0,0.0,138.22,24.06,24.57,36.23,0.04,-272.73,-272.73,-47,550,-937,18.8,0.8,-41.1,18.9,0.8,-40.7,5.73,2.40,-37.0,23.4
2012-03-03 00:15:00,0.0,1.9221,0.0012,402.89,0.29,-1.0,0.0,138.23,24.06,24.57,36.24,0.04,-272.73,-272.73,-47,550,-937,18.8,0.8,-41.3,18.9,0.8,-40.7,5.73,2.42,-37.0,23.4
2012-03-03 00:16:00,0.0,1.9206,0.0011,403.00,0.31,-1.0,0.0,138.22,24.06,24.58,36.23,0.04,-272.73,-272.73,-47,550,-937,18.8,0.7,-41.3,18.9,0.8,-40.7,5.73,2.45,-37.0,23.4
2012-03-03 00:17:00,0.0,1.9197,0.0010,402.88,0.25,-1.0,0.0,138.22,24.06,24.57,36.23,0.04,-272.73,-272.74,-47,550,-937,18.8,0.8,-41.1,18.9,0.8,-40.5,5.73,2.48,-37.0,23.4
2012-03-03 00:18:00,0.0,1.9193,0.0009,402.87,0.25,-1.0,0.0,138.23,24.05,24.57,36.23,0.04,-272.73,-272.73,-47,550,-937,18.8,0.8,-41.1,18.9,0.8,-40.4,5.73,2.48,-37.0,23.4
2012-03-03 00:19:00,0.0,1.9192,0.0009,402.97,0.26,-1.0,0.0,138.22,24.05,24.57,36.23,0.04,-272.73,-272.73,-47,550,-937,18.8,0.8,-41.2,18.9,0.8,-40.5,5.73,2.45,-36.9,23.4
2012-03-03 00:20:00,0.0,1.9193,0.0010,402.80,0.22,-1.0,0.0,138.22,24.04,24.58,36.23,0.04,-272.73,-272.73,-47,550,-937,18.8,0.8,-41.1,18.9,0.8,-40.4,5.73,2.42,-36.9,23.4
2012-03-03 00:21:00,0.0,1.9199,0.0009,402.82,0.26,-1.0,0.0,138.22,24.04,24.57,36.23,0.04,-272.73,-272.73,-47,550,-937,18.8,0.8,-41.1,18.9,0.8,-40.5,5.73,2.40,-36.9,23.5
2012-03-03 00:22:00,0.0,1.9189,0.0009,402.80,0.29,-1.0,0.0,138.23,24.04,24.58,36.23,0.04,-272.73,-272.73,-47,550,-937,18.8,0.8,-40.9,18.9,0.8,-40.4,5.73,2.44,-36.9,23.5
2012-03-03 00:23:00,0.0,1.9192,0.0008,402.67,0.31,-1.0,0.0,138.22,24.04,24.57,36.24,0.04,-272.73,-272.73,-47,550,-937,18.8,0.8,-40.7,18.9,0.8,-40.3,5.73,2.47,-37.0,23.5
2012-03-03 00:24:00,0.0,1.9199,0.0009,402.90,0.25,-1.0,0.0,138.22,24.04,24.57,36.22,0.23,-271.18,-272.69,-47,550,-937,18.8,0.8,-40.8,18.9,0.8,-40.1,5.42,2.59,-40.4,23.5
2012-03-03 00:25:00,0.0,1.9195,0.0008,402.84,0.22,-1.0,0.0,138.22,24.04,24.57,36.23,0.04,-272.73,-272.73,-47,550,-937,18.8,0.8,-40.5,18.9,0.8,-40.0,5.73,2.47,-36.6,23.5
2012-03-03 00:26:00,0.0,1.9191,0.0009,402.77,0.23,-1.0,0.0,138.22,24.04,24.57,36.23,0.04,-272.73,-272.73,-47,550,-937,18.8,0.8,-40.5,18.9,0.9,-39.8,5.73,2.43,-36.6,23.4
2012-03-03 00:27:00,0.0,1.9193,0.0008,402.87,0.25,-1.0,0.0,138.22,24.04,24.57,36.23,0.04,-272.73,-272.73,-47,550,-937,18.8,0.8,-40.2,18.9,0.9,-39.8,5.73,2.40,-36.6,23.4
2012-03-03 00:28:00,0.0,1.9190,0.0010,402.79,0.28,-1.0,0.0,138.22,24.04,24.57,36.23,0.04,-272.73,-272.73,-47,550,-937,18.8,0.8,-40.1,18.9,0.9,-39.6,5.73,2.42,-36.6,23.4
2012-03-03 00:29:00,0.0,1.9198,0.0009,402.89,0.27,-1.0,0.0,138.23,24.04,24.57,36.23,0.04,-272.73,-272.73,-47,550,-937,18.8,1.0,-38.6,18.9,1.0,-38.1,5.73,2.45,-36.6,23.5
2012-03-03 00:30:00,0.0,1.9195,0.0009,403.00,0.26,-1.0,0.0,138.22,24.04,24.57,36.22,0.04,-272.73,-272.73,-47,550,-937,18.8,0.9,-39.4,18.9,1.0,-38.9,5.73,2.49,-36.6,23.4
2012-03-03 00:31:00,0.0,1.9195,0.0008,402.87,0.25,-1.0,0.0,138.23,24.04,24.57,36.23,0.04,-272.73,-272.73,-47,550,-937,18.8,0.9,-39.9,18.9,0.9,-39.3,5.73,2.48,-36.6,23.4
2012-03-03 00:32:00,0.0,1.9189,0.0009,402.81,0.26,-1.0,0.0,138.22,24.04,24.58,36.23,0.04,-272.73,-272.73,-47,550,-937,18.9,0.9,-40.0,18.9,0.9,-39.5,5.73,2.44,-36.6,23.4
2012-03-03 00:33:00,0.0,1.9190,0.0009,402.80,0.28,-1.0,0.0,138.22,24.04,24.57,36.23,0.04,-272.73,-272.73,-47,550,-937,18.9,0.9,-39.8,18.9,0.9,-39.4,5.73,2.41,-36.6,23.4
2012-03-03 00:34:00,0.0,1.9189,0.0008,402.82,0.22,-1.0,0.0,138.22,24.03,24.58,36.23,0.04,-272.73,-272.73,-47,550,-937,18.9,0.9,-39.8,18.9,0.9,-39.2,5.73,2.42,-36.5,23.4
2012-03-03 00:35:00,0.0,1.9192,0.0009,402.85,0.25,-1.0,0.0,138.22,24.03,24.57,36.23,0.04,-272.73,-272.73,-47,550,-937,18.9,0.9,-39.8,18.9,0.9,-39.2,5.73,2.47,-36.5,23.5
2012-03-03 00:36:00,0.0,1.9187,0.0010,402.82,0.29,-1.0,0.0,138.22,24.03,24.57,36.23,0.04,-272.73,-272.73,-47,550,-937,18.9,0.9,-39.8,18.9,0.9,-39.2,5.73,2.49,-36.5,23.4
2012-03-03 00:37:00,0.0,1.9186,0.0010,402.85,0.26,-1.0,0.0,138.22,24.03,24.58,36.23,0.04,-272.73,-272.73,-47,550,-937,18.9,0.9,-39.7,18.9,0.9,-39.2,5.73,2.47,-36.5,23.4
2012-03-03 00:38:00,0.0,1.9188,0.0009,402.86,0.26,-1.0,0.0,138.23,24.03,24.57,36.23,0.04,-272.73,-272.73,-47,550,-937,18.9,1.0,-38.3,18.9,1.1,-37.8,5.73,2.43,-36.5,23.4
2012-03-03 00:39:00,0.0,1.9189,0.0008,402.92,0.25,-1.0,0.0,138.22,24.03,24.57,36.22,0.04,-272.73,-272.73,-47,550,-937,18.9,1.0,-38.6,19.0,1.0,-38.2,5.73,2.40,-36.5,23.4
2012-03-03 00:40:00,0.0,1.9192,0.0008,402.91,0.27,-1.0,0.0,138.23,24.02,24.57,36.23,0.04,-272.73,-272.73,-47,550,-937,18.9,0.9,-39.3,18.9,1.0,-38.8,5.73,2.42,-36.5,23.4
2012-03-03 00:41:00,0.0,1.9193,0.0010,402.83,0.23,-1.0,0.0,138.22,24.03,24.57,36.23,0.04,-272.73,-272.73,-47,550,-937,18.9,0.9,-39.5,18.9,0.9,-39.0,5.73,2.48,-36.5,23.4
2012-03-03 00:42:00,0.0,1.9198,0.0009,402.85,0.24,-1.0,0.0,138.23,24.03,24.57,36.23,0.04,-272.73,-272.73,-47,550,-937,18.9,0.9,-39.5,19.0,1.0,-38.9,5.73,2.49,-36.5,23.5
2012-03-03 00:43:00,0.0,1.9189,0.0011,402.80,0.23,-1.0,0.0,138.22,24.03,24.58,36.24,0.04,-272.73,-272.73,-47,550,-937,18.9,1.1,-37.8,18.9,1.1,-37.2,5.73,2.45,-36.5,23.5
2012-03-03 00:44:00,0.0,1.9191,0.0009,402.95,0.27,-1.0,0.0,138.22,24.03,24.57,36.23,0.04,-272.73,-272.74,-47,550,-937,18.9,0.9,-39.0,19.0,1.0,-38.4,5.73,2.41,-36.5,23.4
2012-03-03 00:45:00,0.0,1.9184,0.0009,402.74,0.25,-1.0,0.0,138.22,24.03,24.58,36.24,0.04,-272.73,-272.73,-47,550,-937,18.9,0.9,-39.4,18.9,0.9,-38.9,5.73,2.40,-36.5,23.4
2012-03-03 00:46:00,0.0,1.9191,0.0009,402.86,0.29,-1.0,0.0,138.22,24.03,24.57,36.23,0.04,-272.73,-272.73,-47,550,-937,18.9,0.9,-39.5,19.0,0.9,-38.9,5.73,2.46,-36.5,23.5
2012-03-03 00:47:00,0.0,1.9197,0.0011,402.94,0.24,-1.0,0.0,138.22,24.03,24.57,36.23,0.04,-272.73,-272.73,-47,550,-937,18.9,0.9,-39.5,19.0,0.9,-38.9,5.73,2.50,-36.5,23.4
2012-03-03 00:48:00,0.0,1.9201,0.0009,402.87,0.26,-1.0,0.0,138.22,24.03,24.57,36.23,0.04,-272.73,-272.73,-47,550,-937,18.9,0.9,-39.5,19.0,0.9,-39.0,5.73,2.47,-36.4,23.4
2012-03-03 00:49:00,0.0,1.9196,0.0010,402.91,0.26,-1.0,0.0,138.23,24.03,24.57,36.23,0.04,-272.73,-272.73,-47,550,-937,18.9,0.9,-39.4,19.0,1.0,-38.9,5.73,2.40,-36.5,23.4
2012-03-03 00:50:00,0.0,1.9195,0.0008,402.82,0.24,-1.0,0.0,138.22,24.03,24.57,36.24,0.04,-272.73,-272.73,-47,550,-937,18.9,0.9,-39.5,19.0,0.9,-39.0,5.73,2.40,-36.5,23.4
2012-03-03 00:51:00,0.0,1.9196,0.0009,402.88,0.30,-1.0,0.0,138.22,24.03,24.57,36.23,0.04,-272.73,-272.73,-47,551,-937,18.9,0.9,-39.6,19.0,0.9,-39.2,5.73,2.44,-36.4,23.4
2012-03-03 00:52:00,0.0,1.9192,0.0011,402.88,0.27,-1.0,0.0,138.22,24.03,24.57,36.23,0.04,-272.73,-272.73,-47,551,-937,18.9,0.9,-39.8,19.0,0.9,-39.2,5.73,2.49,-36.4,23.5
2012-03-03 00:53:00,0.0,1.9189,0.0008,402.78,0.27,-1.0,0.0,138.22,24.03,24.57,36.23,0.04,-272.73,-272.73,-47,551,-937,18.9,0.9,-39.7,19.0,0.9,-39.2,5.73,2.48,-36.4,23.5
2012-03-03 00:54:00,0.0,1.9192,0.0009,402.70,0.30,-1.0,0.0,138.22,24.03,24.57,36.23,0.04,-272.73,-272.73,-47,551,-937,18.9,0.9,-39.8,19.0,0.9,-39.2,5.73,2.43,-36.4,23.5
2012-03-03 00:55:00,0.0,1.9191,0.0009,402.79,0.28,-1.0,0.0,138.22,24.03,24.57,36.23,0.04,-272.73,-272.73,-47,550,-937,18.9,0.9,-39.7,19.0,0.9,-39.1,5.73,2.40,-36.4,23.5
2012-03-03 00:56:00,0.0,1.9192,0.0008,402.68,0.30,-1.0,0.0,138.22,24.03,24.57,36.23,0.04,-272.73,-272.73,-47,550,-937,18.9,0.9,-39.4,19.0,0.9,-39.2,5.73,2.43,-36.4,23.5
2012-03-03 00:57:00,0.0,1.9201,0.0009,402.70,0.28,-1.0,0.0,138.22,24.03,24.57,36.23,0.04,-272.73,-272.73,-47,551,-937,18.9,0.9,-39.6,19.0,0.9,-39.2,5.73,2.48,-36.4,23.5
2012-03-03 00:58:00,0.0,1.9203,0.0008,402.75,0.25,-1.0,0.0,138.22,24.03,24.58,36.23,0.04,-272.73,-272.73,-47,551,-937,18.9,0.9,-39.7,19.0,0.9,-39.1,5.73,2.48,-36.4,23.5
2012-03-03 00:59:00,0.0,1.9200,0.0009,402.86,0.29,-1.0,0.0,138.22,24.03,24.58,36.23,0.04,-272.73,-272.73,-47,551,-937,18.9,0.9,-39.5,19.0,0.9,-38.9,5.73,2.42,-36.4,23.5
2012-03-03 01:00:00,0.0,1.9202,0.0009,402.89,0.27,-1.0,0.0,138.22,24.03,24.57,36.22,0.04,-272.73,-272.73,-47,551,-937,18.9,0.9,-39.9,19.0,0.9,-39.3,5.73,2.39,-36.4,23.5
2012-03-03 01:01:00,0.0,1.9196,0.0009,402.91,0.26,-1.0,0.0,138.22,24.03,24.57,36.22,0.04,-272.73,-272.73,-47,551,-937,18.9,0.8,-40.0,19.0,0.9,-39.5,5.73,2.43,-36.4,23.5
2012-03-03 01:02:00,0.0,1.9192,0.0009,402.79,0.21,-1.0,0.0,138.22,24.03,24.57,36.23,0.04,-272.73,-272.73,-47,551,-937,18.9,0.8,-40.1,19.0,0.9,-39.4,5.73,2.48,-36.3,23.5
2012-03-03 01:03:00,0.0,1.9192,0.0007,402.73,0.24,-1.0,0.0,138.22,24.03,24.57,36.23,0.04,-272.73,-272.73,-47,551,-937,18.9,0.8,-40.0,19.0,0.9,-39.4,5.73,2.48,-36.4,23.5
2012-03-03 01:04:00,0.0,1.9196,0.0007,402.68,0.26,-1.0,0.0,138.22,24.03,24.57,36.24,0.04,-272.73,-272.73,-47,551,-937,18.9,0.8,-40.1,19.0,0.9,-39.4,5.73,2.42,-36.3,23.5
2012-03-03 01:05:00,0.0,1.9196,0.0009,402.66,0.30,-1.0,0.0,138.22,24.03,24.57,36.23,0.04,-272.73,-272.73,-47,551,-937,18.9,0.8,-40.1,19.1,0.9,-39.4,5.73,2.39,-36.4,23.5
2012-03-03 01:06:00,0.0,1.9189,0.0009,402.69,0.26,-1.0,0.0,138.22,24.03,24.57,36.23,0.04,-272.73,-272.73,-47,551,-937,18.9,0.8,-40.0,19.1,0.9,-39.5,5.73,2.45,-36.3,23.5
2012-03-03 01:07:00,0.0,1.9189,0.0008,402.75,0.31,-1.0,0.0,138.22,24.03,24.58,36.22,0.04,-272.73,-272.73,-47,551,-937,18.9,0.8,-40.0,19.1,0.9,-39.4,5.73,2.49,-36.3,23.5
2012-03-03 01:08:00,0.0,1.9189,0.0009,402.71,0.31,-1.0,0.0,138.22,24.03,24.58,36.23,0.04,-272.73,-272.73,-47,551,-937,18.9,0.8,-40.0,19.1,0.9,-39.4,5.73,2.47,-36.3,23.5
2012-03-03 01:09:00,0.0,1.9192,0.0009,402.66,0.27,-1.0,0.0,138.22,24.03,24.57,36.23,0.04,-272.73,-272.73,-47,551,-937,19.0,0.8,-40.1,19.1,0.9,-39.4,5.73,2.40,-36.3,23.5
2012-03-03 01:10:00,0.0,1.9194,0.0008,402.59,0.29,-1.0,0.0,138.22,24.03,24.57,36.23,0.04,-272.73,-272.73,-47,551,-937,19.0,0.8,-40.1,19.1,0.9,-39.4,5.73,2.39,-36.3,23.5
2012-03-03 01:11:00,0.0,1.9191,0.0009,402.66,0.29,-1.0,0.0,138.22,24.03,24.58,36.23,0.04,-272.73,-272.73,-47,551,-937,19.0,0.8,-40.0,19.1,0.9,-39.4,5.73,2.46,-36.3,23.6
2012-03-03 01:12:00,0.0,1.9198,0.0009,402.77,0.24,-1.0,0.0,138.22,24.04,24.57,36.23,0.04,-272.73,-272.73,-47,551,-937,19.0,0.8,-40.0,19.1,0.9,-39.5,5.73,2.50,-36.3,23.6
2012-03-03 01:13:00,0.0,1.9204,0.0010,402.67,0.21,-1.0,0.0,138.22,24.04,24.57,36.23,0.04,-272.73,-272.73,-47,551,-937,19.0,0.9,-39.7,19.1,0.9,-39.2,5.73,2.45,-36.3,23.6
2012-03-03 01:14:00,0.0,1.9201,0.0009,402.70,0.26,-1.0,0.0,138.22,24.04,24.58,36.23,0.04,-272.73,-272.73,-47,551,-937,19.0,0.9,-39.6,19.1,0.9,-39.0,5.73,2.40,-36.3,23.6
2012-03-03 01:15:00,0.0,1.9202,0.0009,402.74,0.28,-1.0,0.0,138.22,24.04,24.57,36.23,0.04,-272.73,-272.73,-47,551,-937,19.0,0.9,-39.8,19.1,0.9,-39.1,5.73,2.41,-36.3,23.6
2012-03-03 01:16:00,0.0,1.9199,0.0007,402.66,0.26,-1.0,0.0,138.22,24.05,24.57,36.23,0.04,-272.73,-272.73,-47,551,-937,19.0,0.9,-39.7,19.1,0.9,-39.1,5.73,2.47,-36.3,23.6
2012-03-03 01:17:00,0.0,1.9198,0.0010,402.58,0.27,-1.0,0.0,138.22,24.05,24.57,36.24,0.04,-272.73,-272.73,-47,551,-937,19.0,0.9,-39.7,19.1,0.9,-39.1,5.73,2.49,-36.3,23.6
2012-03-03 01:18:00,0.0,1.9199,0.0008,402.60,0.28,-1.0,0.0,138.22,24.05,24.57,36.24,0.04,-272.73,-272.73,-47,551,-937,19.0,0.9,-39.7,19.1,0.9,-39.1,5.73,2.43,-36.3,23.6
2012-03-03 01:19:00,0.0,1.9200,0.0009,402.74,0.28,-1.0,0.0,138.22,24.05,24.57,36.23,0.04,-272.72,-272.73,-47,551,-937,19.0,0.9,-38.9,19.1,1.0,-38.4,5.73,2.38,-36.3,23.6
2012-03-03 01:20:00,0.0,1.9197,0.0009,402.67,0.21,-1.0,0.0,138.22,24.05,24.57,36.23,0.04,-272.73,-272.73,-47,551,-937,19.0,0.9,-39.4,19.1,0.9,-38.8,5.73,2.43,-36.2,23.6
2012-03-03 01:21:00,0.0,1.9198,0.0010,402.70,0.27,-1.0,0.0,138.22,24.05,24.57,36.23,0.23,-271.17,-272.68,-47,551,-937,19.0,0.9,-39.6,19.1,0.9,-39.2,5.42,2.55,-39.7,23.7
2012-03-03 01:22:00,0.0,1.9193,0.0010,402.54,0.28,-1.0,0.0,138.22,24.05,24.58,36.24,0.04,-272.73,-272.73,-47,551,-937,19.0,0.9,-39.4,19.1,0.9,-39.2,5.73,2.48,-36.2,23.7
2012-03-03 01:23:00,0.0,1.9194,0.0009,402.69,0.25,-1.0,0.0,138.22,24.05,24.57,36.23,0.04,-272.73,-272.73,-47,551,-937,19.0,0.9,-39.4,19.1,1.0,-38.8,5.73,2.42,-36.2,23.7
2012-03-03 01:24:00,0.0,1.9194,0.0008,402.58,0.22,-1.0,0.0,138.22,24.06,24.57,36.24,0.04,-272.73,-272.73,-47,551,-937,19.0,0.9,-39.4,19.1,1.0,-38.8,5.73,2.39,-36.2,23.7
2012-03-03 01:25:00,0.0,1.9198,0.0010,402.63,0.25,-1.0,0.0,138.22,24.06,24.57,36.24,0.04,-272.73,-272.73,-47,551,-937,19.0,0.9,-39.4,19.1,0.9,-38.9,5.73,2.45,-36.2,23.8
2012-03-03 01:26:00,0.0,1.9196,0.0010,402.65,0.28,-1.0,0.0,138.22,24.06,24.57,36.23,0.04,-272.73,-272.73,-47,551,-937,19.0,0.9,-39.4,19.1,1.0,-38.8,5.73,2.49,-36.2,23.8
2012-03-03 01:27:00,0.0,1.9193,0.0009,402.54,0.23,-1.0,0.0,138.22,24.06,24.58,36.24,0.04,-272.73,-272.73,-47,551,-937,19.0,0.9,-39.4,19.1,0.9,-38.9,5.73,2.44,-36.2,23.8
2012-03-03 01:28:00,0.0,1.9195,0.0009,402.61,0.28,-1.0,0.0,138.22,24.06,24.57,36.23,0.04,-272.73,-272.73,-47,551,-937,19.1,0.9,-39.2,19.1,1.0,-38.8,5.73,2.39,-36.2,23.8
2012-03-03 01:29:00,0.0,1.9195,0.0007,402.62,0.26,-1.0,0.0,138.22,24.06,24.57,36.23,0.04,-272.73,-272.73,-47,551,-937,19.1,0.9,-39.1,19.1,1.0,-38.5,5.73,2.43,-36.2,23.8
2012-03-03 01:30:00,0.0,1.9197,0.0008,402.53,0.21,-1.0,0.0,138.22,24.07,24.57,36.24,0.04,-272.73,-272.73,-47,551,-937,19.1,0.9,-39.1,19.1,1.0,-38.5,5.73,2.49,-36.2,23.8
2012-03-03 01:31:00,0.0,1.9199,0.0011,402.66,0.22,-1.0,0.0,138.22,24.07,24.57,36.23,0.04,-272.73,-272.73,-47,551,-937,19.1,0.9,-39.1,19.1,1.0,-38.6,5.73,2.46,-36.2,23.9
2012-03-03 01:32:00,0.0,1.9195,0.0011,402.61,0.31,-1.0,0.0,138.22,24.07,24.57,36.23,0.04,-272.73,-272.73,-48,551,-937,19.1,0.9,-39.1,19.1,1.0,-38.5,5.73,2.38,-36.2,23.9
2012-03-03 01:33:00,0.0,1.9200,0.0011,402.65,0.25,-1.0,0.0,138.22,24.08,24.57,36.23,0.04,-272.73,-272.73,-47,551,-937,19.1,0.9,-38.9,19.2,1.0,-38.3,5.73,2.42,-36.2,23.9
2012-03-03 01:34:00,0.0,1.9208,0.0010,402.64,0.28,-1.0,0.0,138.22,24.08,24.58,36.23,0.04,-272.73,-272.73,-47,551,-937,19.1,1.0,-38.7,19.2,1.0,-38.2,5.73,2.50,-36.1,23.9
2012-03-03 01:35:00,0.0,1.9208,0.0009,402.58,0.26,-1.0,0.0,138.22,24.09,24.57,36.24,0.04,-272.73,-272.73,-47,552,-937,19.1,1.0,-38.8,19.2,1.0,-38.1,5.73,2.46,-36.1,23.9
2012-03-03 01:36:00,0.0,1.9207,0.0009,402.63,0.25,-1.0,0.0,138.22,24.09,24.57,36.23,0.04,-272.73,-272.73,-47,551,-937,19.1,1.0,-38.6,19.2,1.0,-38.0,5.73,2.38,-36.1,23.9
2012-03-03 01:37:00,0.0,1.9204,0.0010,402.62,0.27,-1.0,0.0,138.22,24.10,24.57,36.23,0.04,-272.73,-272.73,-47,551,-937,19.1,1.0,-38.5,19.2,1.0,-38.0,5.73,2.42,-36.1,23.9
2012-03-03 01:38:00,0.0,1.9203,0.0009,402.68,0.23,-1.0,0.0,138.22,24.10,24.57,36.23,0.04,-272.73,-272.73,-47,551,-937,19.1,1.0,-38.6,19.2,1.0,-38.0,5.73,2.49,-36.1,23.9
2012-03-03 01:39:00,0.0,1.9201,0.0011,402.61,0.26,-1.0,0.0,138.22,24.10,24.57,36.24,0.04,-272.73,-272.73,-47,552,-937,19.1,1.0,-38.6,19.2,1.0,-38.0,5.73,2.46,-36.1,23.9
2012-03-03 01:40:00,0.0,1.9200,0.0008,402.55,0.25,-1.0,0.0,138.22,24.10,24.57,36.24,0.04,-272.73,-272.73,-47,552,-937,19.1,1.0,-38.3,19.2,1.0,-37.9,5.73,2.39,-36.1,23.9
2012-03-03 01:41:00,0.0,1.9198,0.0008,402.60,0.23,-1.0,0.0,138.22,24.11,24.58,36.24,0.04,-272.73,-272.73,-47,552,-937,19.1,1.0,-38.3,19.2,1.0,-38.0,5.73,2.41,-36.1,23.9
2012-03-03 01:42:00,0.0,1.9213,0.0010,402.68,0.22,-1.0,0.0,138.22,24.11,24.57,36.23,0.04,-272.73,-272.73,-47,552,-937,19.1,1.0,-38.2,19.2,1.0,-37.9,5.73,2.47,-36.1,23.9
2012-03-03 01:43:00,0.0,1.9210,0.0009,402.61,0.24,-1.0,0.0,138.22,24.12,24.57,36.23,0.04,-272.73,-272.73,-47,552,-937,19.1,1.0,-38.1,19.2,1.1,-37.7,5.73,2.49,-36.1,24.0
2012-03-03 01:44:00,0.0,1.9208,0.0008,402.65,0.25,-1.0,0.0,138.22,24.12,24.57,36.23,0.04,-272.73,-272.73,-47,552,-937,19.1,1.0,-37.9,19.2,1.1,-37.7,5.73,2.44,-36.1,24.0
2012-03-03 01:45:00,0.0,1.9203,0.0010,402.60,0.28,-1.0,0.0,138.22,24.12,24.58,36.23,0.04,-272.73,-272.73,-47,552,-937,19.1,1.0,-38.0,19.3,1.1,-37.7,5.73,2.39,-36.0,23.9
2012-03-03 01:46:00,0.0,1.9202,0.0008,402.65,0.27,-1.0,0.0,138.22,24.13,24.57,36.23,0.04,-272.73,-272.73,-47,552,-937,19.2,1.1,-37.8,19.2,1.1,-37.4,5.73,2.42,-36.1,24.0
2012-03-03 01:47:00,0.0,1.9214,0.0009,402.61,0.28,-1.0,0.0,138.21,24.13,24.57,36.23,0.04,-272.73,-272.73,-47,552,-937,19.2,1.2,-36.3,19.2,1.3,-36.1,5.73,2.48,-36.0,24.0
2012-03-03 01:48:00,0.0,1.9217,0.0008,402.59,0.31,-1.0,0.0,138.22,24.14,24.57,36.24,0.04,-272.73,-272.73,-47,552,-937,19.2,1.2,-36.7,19.2,1.2,-36.4,5.73,2.48,-36.0,24.0
2012-03-03 01:49:00,0.0,1.9208,0.0009,402.57,0.23,-1.0,0.0,138.21,24.15,24.57,36.24,0.04,-272.73,-272.73,-48,552,-937,19.2,1.1,-37.5,19.3,1.1,-37.1,5.73,2.42,-36.0,24.0
2012-03-03 01:50:00,0.0,1.9208,0.0008,402.65,0.28,-1.0,0.0,138.21,24.15,24.57,36.23,0.04,-272.73,-272.73,-47,552,-937,19.2,1.1,-37.7,19.3,1.1,-37.2,5.73,2.39,-36.0,24.0
2012-03-03 01:51:00,0.0,1.9206,0.0008,402.71,0.22,-1.0,0.0,138.22,24.15,24.57,36.23,0.04,-272.73,-272.73,-47,552,-937,19.2,1.3,-35.8,19.3,1.3,-35.5,5.73,2.43,-36.0,24.0
2012-03-03 01:52:00,0.0,1.9204,0.0009,402.55,0.27,-1.0,0.0,138.22,24.15,24.57,36.24,0.04,-272.73,-272.73,-47,552,-937,19.2,1.1,-37.0,19.3,1.2,-36.6,5.73,2.48,-36.0,24.0
2012-03-03 01:53:00,0.0,1.9203,0.0009,402.75,0.26,-1.0,0.0,138.21,24.15,24.57,36.23,0.04,-272.73,-272.73,-47,552,-937,19.2,1.1,-37.5,19.3,1.1,-37.1,5.73,2.48,-36.0,24.0
2012-03-03 01:54:00,0.0,1.9198,0.0010,402.76,0.25,-1.0,0.0,138.21,24.16,24.57,36.23,0.04,-272.73,-272.73,-47,552,-937,19.2,1.1,-37.6,19.3,1.1,-37.1,5.73,2.42,-36.0,24.0
2012-03-03 01:55:00,0.0,1.9195,0.0008,402.72,0.28,-1.0,0.0,138.22,24.16,24.57,36.23,0.04,-272.73,-272.73,-48,552,-937,19.2,1.1,-37.2,19.3,1.2,-36.8,5.73,2.39,-36.0,24.0
2012-03-03 01:56:00,0.0,1.9193,0.0009,402.75,0.31,-1.0,0.0,138.21,24.16,24.57,36.23,0.04,-272.73,-272.73,-48,552,-937,19.2,1.1,-37.5,19.3,1.1,-37.2,5.73,2.42,-36.0,24.0
2012-03-03 01:57:00,0.0,1.9191,0.0011,402.74,0.25,-1.0,0.0,138.21,24.16,24.57,36.23,0.04,-272.73,-272.73,-48,552,-937,19.3,1.0,-37.8,19.3,1.1,-37.3,5.73,2.47,-35.9,24.0
2012-03-03 01:58:00,0.0,1.9193,0.0009,402.81,0.27,-1.0,0.0,138.22,24.16,24.57,36.22,0.04,-272.73,-272.73,-48,552,-937,19.2,1.0,-37.8,19.3,1.1,-37.4,5.73,2.48,-35.9,24.0
2012-03-03 01:59:00,0.0,1.9194,0.0009,402.64,0.26,-1.0,0.0,138.21,24.17,24.57,36.23,0.04,-272.73,-272.73,-47,552,-937,19.3,1.0,-37.8,19.3,1.1,-37.4,5.73,2.43,-35.9,24.0
2012-03-03 02:00:00,0.0,1.9196,0.0008,402.72,0.23,-1.0,0.0,138.21,24.17,24.57,36.23,0.04,-272.73,-272.73,-47,553,-937,19.3,1.1,-37.7,19.3,1.1,-37.3,5.73,2.38,-35.9,24.0
2012-03-03 02:01:00,0.0,1.9197,0.0008,402.60,0.22,-1.0,0.0,138.22,24.17,24.57,36.23,0.04,-272.73,-272.73,-48,553,-937,19.3,1.0,-38.1,19.3,1.1,-37.6,5.73,2.42,-35.9,24.1
2012-03-03 02:02:00,0.0,1.9204,0.0011,402.62,0.24,-1.0,0.0,138.21,24.18,24.57,36.23,0.04,-272.73,-272.73,-48,553,-937,19.3,1.0,-38.1,19.3,1.1,-37.6,5.73,2.48,-35.9,24.0
2012-03-03 02:03:00,0.0,1.9215,0.0007,402.65,0.24,-1.0,0.0,138.21,24.18,24.57,36.23,0.04,-272.73,-272.73,-48,553,-937,19.3,1.0,-38.1,19.3,1.1,-37.7,5.73,2.48,-35.9,24.0
2012-03-03 02:04:00,0.0,1.9208,0.0009,402.57,0.26,-1.0,0.0,138.21,24.19,24.58,36.23,0.04,-272.73,-272.73,-48,553,-937,19.3,1.0,-38.4,19.3,1.0,-37.9,5.73,2.43,-35.8,24.0
2012-03-03 02:05:00,0.0,1.9209,0.0009,402.65,0.26,-1.0,0.0,138.22,24.19,24.57,36.23,0.04,-272.73,-272.73,-48,553,-937,19.3,1.0,-38.5,19.3,1.0,-37.9,5.73,2.39,-35.8,24.0
2012-03-03 02:06:00,0.0,1.9205,0.0007,402.70,0.26,-1.0,0.0,138.21,24.20,24.57,36.23,0.04,-272.73,-272.73,-47,553,-937,19.3,1.0,-38.7,19.4,1.0,-38.0,5.73,2.42,-35.8,24.0
2012-03-03 02:07:00,0.0,1.9205,0.0008,402.65,0.26,-1.0,0.0,138.21,24.20,24.57,36.23,0.04,-272.73,-272.73,-47,553,-937,19.3,0.9,-38.7,19.4,1.0,-38.2,5.73,2.48,-35.8,24.1
2012-03-03 02:08:00,0.0,1.9201,0.0007,402.70,0.25,-1.0,0.0,138.21,24.21,24.57,36.23,0.04,-272.73,-272.73,-48,553,-937,19.3,1.0,-38.7,19.3,1.0,-38.2,5.73,2.48,-35.8,24.0
2012-03-03 02:09:00,0.0,1.9205,0.0008,402.64,0.21,-1.0,0.0,138.21,24.21,24.57,36.23,0.04,-272.73,-272.73,-48,553,-937,19.3,0.9,-38.7,19.4,1.0,-38.3,5.73,2.42,-35.8,24.0
2012-03-03 02:10:00,0.0,1.9201,0.0009,402.72,0.27,-1.0,0.0,138.21,24.21,24.58,36.23,0.04,-272.73,-272.73,-48,553,-937,19.3,0.9,-38.9,19.4,1.0,-38.4,5.73,2.38,-35.8,24.1
2012-03-03 02:11:00,0.0,1.9215,0.0007,402.65,0.29,-1.0,0.0,138.21,24.22,24.57,36.23,0.04,-272.73,-272.73,-48,553,-937,19.3,1.0,-38.5,19.4,1.0,-37.9,5.73,2.43,-35.8,24.1
2012-03-03 02:12:00,0.0,1.9215,0.0009,402.62,0.23,-1.0,0.0,138.21,24.22,24.57,36.24,0.04,-272.73,-272.73,-48,553,-937,19.3,1.0,-38.7,19.4,1.0,-38.0,5.73,2.49,-35.8,24.1
2012-03-03 02:13:00,0.0,1.9210,0.0008,402.71,0.21,-1.0,0.0,138.21,24.23,24.58,36.23,0.04,-272.73,-272.73,-47,553,-937,19.3,1.0,-38.7,19.4,1.0,-38.1,5.73,2.47,-35.7,24.1
2012-03-03 02:14:00,0.0,1.9207,0.0011,402.87,0.31,-1.0,0.0,138.21,24.23,24.57,36.22,0.04,-272.73,-272.73,-48,553,-937,19.3,0.9,-38.7,19.4,1.0,-38.1,5.73,2.41,-35.7,24.1
2012-03-03 02:15:00,0.0,1.9203,0.0007,402.76,0.25,-1.0,0.0,138.21,24.24,24.57,36.23,0.04,-272.73,-272.73,-48,553,-937,19.3,1.0,-38.7,19.4,1.0,-38.1,5.73,2.39,-35.7,24.1
2012-03-03 02:16:00,0.0,1.9200,0.0009,402.80,0.31,-1.0,0.0,138.21,24.24,24.57,36.22,0.04,-272.73,-272.73,-48,553,-937,19.3,0.9,-38.7,19.4,1.0,-38.1,5.73,2.44,-35.7,24.1
2012-03-03 02:17:00,0.0,1.9199,0.0009,402.71,0.25,-1.0,0.0,138.21,24.24,24.57,36.23,0.04,-272.73,-272.73,-48,553,-937,19.3,1.0,-38.6,19.4,1.0,-38.1,5.73,2.49,-35.7,24.1
2012-03-03 02:18:00,0.0,1.9198,0.0008,402.72,0.29,-1.0,0.0,138.21,24.25,24.57,36.23,0.04,-272.73,-272.73,-48,553,-937,19.4,1.0,-38.6,19.4,1.0,-38.1,5.73,2.46,-35.7,24.1